[[{"header":{"parameterUnit":"m.s-1","parameterCategory":1,"la1":30.2991,"la2":30.254,"lo1":-89.0895,"lo2":-89.0444,"dy":0.0017,"dx":0.0017,"nx":28,"ny":28,"refTime":"2025-12-01T03:00:00:Z","depth":0,"parameterNumber":2,"parameterNumberName":"U-component_of_WINDS"},"data":[0,0,0,0,0,0,0,0,0,0,0,0,0,0,0,0,0,0,0,0,0,0,0,0,0,0,0,0,0,0,0,0,0,0,0,0,0,0,0,0,0,0,0,0,0,0,0,0,0,0,0,0,0,0,0,0,0,0,-0.5456,-0.5456,0,-0.5481,-0.5481,-0.5481,-0.5449,-0.5448,-0.5447,-0.5446,-0.5474,-0.5475,-0.5477,0,0,0,0,0,0,0,0,0,0,0,0,0,-0.5382,-0.5383,-0.5456,-0.5456,-0.5456,-0.5481,-0.5481,-0.5481,-0.5449,-0.5448,-0.5447,-0.5445,-0.5473,-0.5475,-0.5477,0,0,0,0,0,0,0,0,0,0,0,0,0,-0.5411,-0.5384,-0.5456,-0.5443,-0.5442,-0.5481,-0.5481,-0.5482,-0.545,-0.5448,-0.5446,-0.5444,-0.5472,-0.5475,-0.5478,-0.553,0,0,-0.5486,-0.5487,0,0,0,0,0,0,0,0,-0.541,-0.5414,-0.5445,-0.5444,-0.5443,-0.546,-0.5465,-0.5498,-0.545,-0.5447,-0.5446,-0.5444,-0.5471,-0.5473,-0.5482,-0.5531,-0.5533,-0.5486,-0.5488,-0.5489,-0.549,0,0,0,0,0,0,0,-0.5408,-0.5413,-0.5466,-0.5445,-0.5444,-0.5437,-0.5439,-0.5471,-0.5468,-0.5447,-0.5445,-0.5448,-0.547,-0.5479,-0.5482,-0.5533,-0.5486,-0.5489,-0.549,-0.5491,-0.5627,-0.5629,0,0,0,0,0,0,-0.5407,-0.5411,-0.5465,-0.5466,-0.5422,-0.544,-0.5442,-0.5456,-0.5468,-0.5468,-0.545,-0.5447,-0.5476,-0.5479,-0.5483,-0.5546,-0.5489,-0.5492,-0.5493,-0.5625,-0.5628,-0.563,0,0,0,0,0,0,-0.5405,-0.5412,-0.5464,-0.5438,-0.5444,-0.5443,-0.5459,-0.5458,-0.5467,-0.547,-0.5469,-0.546,-0.5474,-0.5479,-0.5519,-0.5547,-0.5493,-0.5495,-0.5623,-0.5626,-0.5629,-0.5673,0,0,0,0,0,0,-0.5403,-0.5411,-0.5431,-0.5439,-0.5446,-0.5499,-0.5461,-0.546,-0.5472,-0.5468,-0.5479,-0.548,-0.5473,-0.5515,-0.5521,-0.555,-0.5498,-0.5621,-0.5624,-0.5628,-0.5669,-0.5677,-0.5684,0,0,0,0,0,-0.5401,-0.5443,-0.5432,-0.5439,-0.547,-0.55,-0.5504,-0.5496,-0.5474,-0.5495,-0.5496,-0.5479,-0.5542,-0.5519,-0.5526,-0.5556,-0.5619,-0.5623,-0.5628,-0.5665,-0.5675,-0.5683,0,0,0,0,0,0,-0.5439,-0.5443,-0.5432,-0.5477,-0.5489,-0.5495,-0.552,-0.5506,-0.5524,-0.552,-0.5509,-0.5512,-0.5554,-0.5558,-0.5533,-0.5608,-0.5577,-0.5583,-0.5603,-0.5613,-0.562,-0.5619,-0.55,0,0,0,0,0,-0.5452,-0.5476,-0.5479,-0.5519,-0.5525,-0.5521,-0.5534,-0.5526,-0.5538,-0.5543,-0.5547,-0.5559,-0.5582,-0.5597,-0.5618,-0.5669,-0.5671,-0.5692,-0.57,-0.5706,-0.5712,-0.574,-0.575,-0.5644,-0.5644,-0.5644,0,0,-0.5481,-0.5486,-0.5502,-0.5527,-0.5534,-0.556,-0.5526,-0.5554,-0.5573,-0.5547,-0.5585,-0.5588,-0.5601,-0.5647,-0.5667,-0.5652,-0.5741,-0.5712,-0.5716,-0.5719,-0.5746,-0.5756,-0.5765,-0.5647,-0.5647,-0.5646,0,0,-0.5547,-0.5552,-0.5587,-0.5595,-0.5607,-0.5604,-0.5613,-0.5621,-0.5622,-0.5659,-0.5641,-0.5663,-0.5702,-0.5712,-0.5723,-0.5792,-0.5778,-0.5799,-0.5838,-0.5866,-0.5874,-0.5882,-0.5908,-0.5917,-0.5804,-0.5804,-0.5804,0,-0.5581,-0.5618,-0.5606,-0.5636,-0.5648,-0.5625,-0.566,-0.5669,-0.5687,-0.5696,-0.5679,-0.5727,-0.5734,-0.5782,-0.5799,-0.5808,-0.5818,-0.5798,-0.5874,-0.5881,-0.5888,-0.5913,-0.5922,-0.5807,-0.5807,-0.5806,-0.5806,0,-0.566,-0.5686,-0.5713,-0.5731,-0.5745,-0.5778,-0.5771,-0.5788,-0.5778,-0.5778,-0.5816,-0.5824,-0.5846,-0.5857,-0.5848,-0.5904,-0.5894,-0.5875,-0.5845,-0.5901,-0.5924,-0.5933,-0.5811,-0.581,-0.5809,-0.5808,0,0,-0.5752,-0.5763,-0.5773,-0.5781,-0.5792,-0.5812,-0.5844,-0.5865,-0.588,-0.5893,-0.592,-0.5953,-0.5936,-0.5947,-0.594,-0.5963,-0.6019,-0.5942,-0.5942,-0.5957,-0.6082,-0.6098,-0.6109,-0.6009,-0.6011,-0.6012,-0.6082,0,-0.5819,-0.5873,-0.5863,-0.5916,-0.5941,-0.5919,-0.5946,-0.5956,-0.5956,-0.5978,-0.5978,-0.6002,-0.5976,-0.5984,-0.6006,-0.6008,-0.6045,-0.6002,-0.6035,-0.6037,-0.6035,-0.6121,-0.6137,-0.6203,-0.6091,-0.6092,-0.6093,0,-0.5904,-0.5921,-0.5976,-0.5983,-0.5993,-0.6018,-0.6037,-0.6057,-0.6068,-0.6067,-0.608,-0.6068,-0.61,-0.6067,-0.6112,-0.6083,-0.6096,-0.6099,-0.6101,-0.6105,-0.607,-0.6129,-0.6223,-0.6234,-0.6107,-0.6106,-0.6105,0,-0.5968,-0.6003,-0.6041,-0.6048,-0.6058,-0.6076,-0.6081,-0.609,-0.6104,-0.612,-0.6129,-0.6149,-0.6161,-0.6177,-0.6171,-0.6147,-0.6217,-0.6184,-0.6218,-0.6218,-0.6235,-0.6235,-0.6335,-0.6241,-0.624,-0.624,-0.624,0,-0.6045,-0.608,-0.607,-0.6093,-0.6132,-0.612,-0.6159,-0.6162,-0.617,-0.6194,-0.6176,-0.6199,-0.6189,-0.6211,-0.6206,-0.6245,-0.625,-0.625,-0.6249,-0.6253,-0.6253,-0.6263,-0.6259,-0.6243,-0.6242,-0.6242,-0.6241,0,-0.6123,-0.6117,-0.6158,-0.6163,-0.6165,-0.6194,-0.6198,-0.6221,-0.6219,-0.625,-0.6256,-0.6254,-0.628,-0.6274,-0.6303,-0.6299,-0.6348,-0.634,-0.6345,-0.6343,-0.6378,-0.6376,-0.6489,-0.6504,-0.6399,-0.64,-0.6401,0,-0.6173,-0.62,-0.6208,-0.6222,-0.6228,-0.6252,-0.6266,-0.6255,-0.627,-0.6285,-0.6306,-0.6329,-0.6348,-0.639,-0.6391,-0.6413,-0.6407,-0.6445,-0.641,-0.6414,-0.6409,-0.6409,-0.6412,-0.6453,-0.6454,-0.6455,-0.6456,0,-0.6263,-0.6259,-0.6279,-0.6299,-0.6315,-0.633,-0.6343,-0.6356,-0.6346,-0.6364,-0.639,-0.6404,-0.6433,-0.6457,-0.6477,-0.6483,-0.6469,-0.6466,-0.6476,-0.6481,-0.6483,-0.6484,-0.6365,-0.6464,-0.6463,-0.6463,-0.6462,-0.6462,-0.633,-0.6353,-0.6363,-0.6386,-0.6394,-0.6407,-0.6428,-0.6429,-0.645,-0.6472,-0.6464,-0.6494,-0.6505,-0.653,-0.6538,-0.6561,-0.6547,-0.656,-0.6564,-0.6568,-0.6573,-0.6478,-0.6565,-0.6565,-0.6564,-0.6564,-0.6564,0,-0.6421,-0.6426,-0.6447,-0.6466,-0.6484,-0.6467,-0.648,-0.6497,-0.6523,-0.6534,-0.6553,-0.6583,-0.6606,-0.6609,-0.6631,-0.665,-0.6644,-0.6656,-0.6656,-0.6657,-0.6584,-0.6574,-0.6661,-0.6661,-0.6661,-0.6661,-0.6661,-0.6661,-0.6471,-0.6509,-0.6506,-0.6548,-0.6552,-0.6581,-0.659,-0.6602,-0.6611,-0.6645,-0.6664,-0.6665,-0.6673,-0.6696,-0.6717,-0.6717,-0.6727,-0.6743,-0.674,-0.6672,-0.6662,-0.6653,-0.6644,-0.6744,-0.6744,-0.6812,-0.6813,-0.6813]},{"header":{"parameterUnit":"m.s-1","parameterCategory":1,"la1":30.2991,"la2":30.254,"lo1":-89.0895,"lo2":-89.0444,"dy":0.0017,"dx":0.0017,"nx":28,"ny":28,"refTime":"2025-12-01T03:00:00:Z","depth":0,"parameterNumber":3,"parameterNumberName":"V-component_of_WINDS"},"data":[0,0,0,0,0,0,0,0,0,0,0,0,0,0,0,0,0,0,0,0,0,0,0,0,0,0,0,0,0,0,0,0,0,0,0,0,0,0,0,0,0,0,0,0,0,0,0,0,0,0,0,0,0,0,0,0,0,0,-6.8006,-6.8006,0,-6.8063,-6.8064,-6.8064,-6.7994,-6.7992,-6.7989,-6.7987,-6.8042,-6.8046,-6.8049,0,0,0,0,0,0,0,0,0,0,0,0,0,-6.783,-6.7833,-6.8005,-6.8006,-6.8007,-6.8063,-6.8064,-6.8065,-6.7995,-6.7992,-6.7989,-6.7986,-6.8041,-6.8045,-6.805,0,0,0,0,0,0,0,0,0,0,0,0,0,-6.7898,-6.7834,-6.8005,-6.7979,-6.7977,-6.8063,-6.8064,-6.8065,-6.7995,-6.7992,-6.7988,-6.7984,-6.8039,-6.8045,-6.805,-6.8163,0,0,-6.8068,-6.8071,0,0,0,0,0,0,0,0,-6.7895,-6.7905,-6.7982,-6.7981,-6.7979,-6.8018,-6.8022,-6.8098,-6.7996,-6.7988,-6.7987,-6.7982,-6.8037,-6.8042,-6.8062,-6.8166,-6.8168,-6.8069,-6.8072,-6.8075,-6.8076,0,0,0,0,0,0,0,-6.789,-6.7902,-6.8028,-6.7983,-6.7981,-6.7962,-6.7968,-6.8036,-6.8033,-6.7989,-6.7984,-6.7992,-6.8035,-6.8056,-6.8062,-6.8169,-6.8068,-6.8074,-6.8077,-6.8079,-6.8366,-6.837,0,0,0,0,0,0,-6.7889,-6.7899,-6.8026,-6.803,-6.7927,-6.7969,-6.7975,-6.8009,-6.8032,-6.8032,-6.7995,-6.7988,-6.8048,-6.8056,-6.8064,-6.8195,-6.8075,-6.808,-6.8083,-6.8362,-6.8367,-6.8371,0,0,0,0,0,0,-6.7885,-6.7901,-6.8024,-6.7963,-6.7977,-6.7976,-6.8015,-6.8012,-6.8033,-6.8037,-6.8036,-6.8018,-6.8045,-6.8056,-6.8139,-6.8196,-6.8083,-6.8088,-6.8357,-6.8363,-6.8369,-6.8461,0,0,0,0,0,0,-6.7881,-6.79,-6.7945,-6.7964,-6.7981,-6.81,-6.8019,-6.8016,-6.8044,-6.8036,-6.8058,-6.8058,-6.8043,-6.813,-6.8145,-6.8202,-6.8092,-6.8352,-6.836,-6.8367,-6.8453,-6.8469,-6.8484,0,0,0,0,0,-6.7875,-6.7968,-6.7947,-6.7963,-6.8036,-6.8103,-6.8112,-6.8095,-6.8049,-6.8092,-6.8094,-6.8057,-6.8188,-6.814,-6.8155,-6.8215,-6.8348,-6.8357,-6.8366,-6.8446,-6.8466,-6.8483,0,0,0,0,0,0,-6.7954,-6.797,-6.7947,-6.805,-6.8076,-6.8091,-6.8146,-6.8117,-6.8156,-6.8146,-6.8121,-6.8127,-6.8215,-6.8223,-6.8169,-6.8324,-6.826,-6.8273,-6.8315,-6.8335,-6.835,-6.8345,-6.8097,0,0,0,0,0,-6.7984,-6.8038,-6.8049,-6.8138,-6.8153,-6.8147,-6.8176,-6.816,-6.8185,-6.8195,-6.8203,-6.8228,-6.8274,-6.8305,-6.8348,-6.8454,-6.8456,-6.8503,-6.8518,-6.8531,-6.8542,-6.8595,-6.8615,-6.8402,-6.8402,-6.8402,0,0,-6.8045,-6.806,-6.8096,-6.8155,-6.8173,-6.8227,-6.8157,-6.8218,-6.8258,-6.8204,-6.8282,-6.8289,-6.8315,-6.8409,-6.8451,-6.8419,-6.8601,-6.8543,-6.8553,-6.8557,-6.8607,-6.8627,-6.8645,-6.8408,-6.8407,-6.8406,0,0,-6.8184,-6.8203,-6.8278,-6.8298,-6.8326,-6.8322,-6.834,-6.836,-6.8362,-6.8441,-6.8401,-6.8447,-6.8528,-6.8547,-6.8567,-6.8713,-6.8678,-6.8727,-6.8808,-6.886,-6.8877,-6.8892,-6.8941,-6.8959,-6.8738,-6.8739,-6.8739,0,-6.8256,-6.8339,-6.832,-6.8384,-6.841,-6.8364,-6.8439,-6.8458,-6.8499,-6.8517,-6.8481,-6.858,-6.8595,-6.8691,-6.8726,-6.8745,-6.8763,-6.8724,-6.8876,-6.8891,-6.8904,-6.8951,-6.8969,-6.8744,-6.8743,-6.8743,-6.8742,0,-6.8425,-6.8482,-6.854,-6.858,-6.8613,-6.8682,-6.8671,-6.8706,-6.8687,-6.8686,-6.8765,-6.878,-6.8824,-6.8847,-6.8829,-6.894,-6.8919,-6.8881,-6.8815,-6.8931,-6.8973,-6.8991,-6.8752,-6.875,-6.8748,-6.8747,0,0,-6.8615,-6.8644,-6.8665,-6.8682,-6.8709,-6.8753,-6.8819,-6.8863,-6.8891,-6.8921,-6.8974,-6.9043,-6.9007,-6.903,-6.9014,-6.906,-6.917,-6.9015,-6.9015,-6.9041,-6.929,-6.9317,-6.9338,-6.9149,-6.9152,-6.9155,-6.9287,0,-6.8752,-6.8868,-6.8852,-6.8962,-6.9013,-6.897,-6.9027,-6.9049,-6.9049,-6.9091,-6.9091,-6.9139,-6.909,-6.9103,-6.9147,-6.9148,-6.922,-6.9138,-6.9195,-6.9197,-6.9187,-6.9361,-6.939,-6.9514,-6.9304,-6.9307,-6.9309,0,-6.8928,-6.8964,-6.9079,-6.9096,-6.9117,-6.9169,-6.9206,-6.9248,-6.9271,-6.9268,-6.9294,-6.9269,-6.9332,-6.9268,-6.9353,-6.9298,-6.932,-6.9324,-6.9328,-6.9331,-6.9258,-6.9366,-6.9554,-6.9571,-6.9336,-6.9334,-6.9332,0,-6.9052,-6.9129,-6.9207,-6.9223,-6.9246,-6.9283,-6.9294,-6.9313,-6.934,-6.9373,-6.9389,-6.9429,-6.945,-6.948,-6.9466,-6.9421,-6.9553,-6.9488,-6.955,-6.955,-6.9577,-6.9575,-6.9769,-6.9597,-6.9597,-6.9596,-6.9596,0,-6.9205,-6.9277,-6.9262,-6.931,-6.9388,-6.9368,-6.9445,-6.9451,-6.9468,-6.9514,-6.948,-6.9524,-6.9504,-6.9546,-6.9535,-6.9605,-6.9616,-6.9613,-6.9609,-6.9615,-6.9615,-6.9627,-6.9617,-6.9601,-6.96,-6.9599,-6.9598,0,-6.9356,-6.935,-6.9431,-6.9446,-6.9452,-6.9508,-6.9519,-6.9563,-6.9561,-6.962,-6.9632,-6.9628,-6.9675,-6.9664,-6.9717,-6.9709,-6.9797,-6.9783,-6.9789,-6.9785,-6.9846,-6.9839,-7.0052,-7.0078,-6.9892,-6.9894,-6.9895,0,-6.9453,-6.9507,-6.9527,-6.9556,-6.957,-6.9617,-6.9644,-6.9627,-6.9656,-6.9685,-6.9724,-6.9769,-6.9803,-6.9881,-6.9881,-6.992,-6.9905,-6.9977,-6.9911,-6.9914,-6.9902,-6.9898,-6.9902,-6.9989,-6.9991,-6.9993,-6.9995,0,-6.9625,-6.9619,-6.966,-6.9699,-6.9732,-6.9762,-6.9789,-6.9814,-6.9798,-6.9832,-6.9881,-6.9908,-6.996,-7.0004,-7.0039,-7.0048,-7.0018,-7.0016,-7.0032,-7.0037,-7.0037,-7.0034,-6.9822,-7.0011,-7.0009,-7.0008,-7.0007,-7.0006,-6.975,-6.9794,-6.9815,-6.9861,-6.9879,-6.9904,-6.9945,-6.9948,-6.9988,-7.003,-7.0017,-7.0071,-7.009,-7.0135,-7.0149,-7.0189,-7.0162,-7.0186,-7.0191,-7.0196,-7.0202,-7.0033,-7.0196,-7.0196,-7.0195,-7.0195,-7.0194,0,-6.9917,-6.9928,-6.9971,-7.0009,-7.0044,-7.0014,-7.0041,-7.0072,-7.0121,-7.0142,-7.0176,-7.023,-7.0272,-7.0276,-7.0315,-7.0346,-7.0333,-7.0357,-7.0353,-7.0355,-7.0226,-7.0207,-7.0367,-7.0367,-7.0367,-7.0366,-7.0366,-7.0366,-7.0008,-7.0081,-7.0077,-7.0158,-7.0168,-7.0221,-7.0239,-7.0261,-7.0277,-7.0339,-7.0374,-7.0377,-7.039,-7.0429,-7.0465,-7.0465,-7.0479,-7.0508,-7.0502,-7.0381,-7.0364,-7.0348,-7.033,-7.0512,-7.0512,-7.0626,-7.0628,-7.0628]}]]